sat.trackr.live / text

‹ back to catalog

STARLINK-2634

NORAD 48445 · 2021-040T

PAYLOAD ACTIVE UNKNOWN

§ Identity

Operator
Country
US
Launch date
2021-05-09
Launch site
AFETR
Launch vehicle
Mass (kg)
RCS (m²)

Purposes: comms

External: N2YO · Heavens-Above · Gunter

§ Orbital elements

Epoch: 2026-09-19T06:28:53.328288Z

Period
94.01 min
Inclination
53.1616°
Eccentricity
0.0000934
Mean motion
15.31706004 rev/d
Perigee alt
470.1 km
Apogee alt
471.4 km
Semi-major
6,848.9 km
B*
3.0392e-5
RAAN
357.2298°
Arg perigee
74.6532°
Mean anomaly
285.4572°
Rev number
29,634

§ Raw data

STARLINK-26341 48445U 21040T   26262.27006167  .00000578  00000+0  30392-4 0  99992 48445  53.1616 357.2298 0000934  74.6532 285.4572 15.31706004296342

JSON: /api/v1/satellites/48445 · /tle

For live sub-satellite position, see the globe view (requires WebGL).

§ Visibility from observer

Set your observer location to see the next 7 days of passes ≥ 10°. The values pass through the URL so the page stays shareable.

No JS? Fill the form by hand. The geolocation button needs JavaScript.